This demonstration page uses our WeatherBlox Daily Observations layout. Learn more.

39.08367, -84.50855

Hourly Observations for January 15, 2020

Temp ( °F °C ) Dew Point ( °F °C ) Humidity (%) Winds ( mph kmh ) Pressure ( in mb ) Visibility ( mi km ) Precip ( " mm )
12:17 am 00:17 Mostly Cloudy with Mist and Fog 32 0 32 0 100 100 Calm 30.26 1025 1 1.60934 0 0
12:24 am 00:24 Mostly Cloudy with Fog 33 0.6 32 0 96 96 NE 3 6 30.26 1025 0.5 0.80467 0 0
12:51 am 00:51 Mostly Cloudy with Fog 32 0 30 -1 93 93 Calm 30.25 1024 0.25 0.402335 0 0
12:53 am 00:53 Mostly Cloudy with Fog 32 0 31 -0.6 96 96 Calm 30.23 1024 0.25 0.402335 0 0
1:43 am 01:43 Mostly Cloudy with Freezing Fog 31 -0.6 31 -0.6 100 100 Calm 30.24 1024 0.25 0.402335 0 0
1:53 am 01:53 Mostly Cloudy with Freezing Fog 31 -0.6 31 -0.6 100 100 Calm 30.22 1023 0.25 0.402335 0 0
2:53 am 02:53 Mostly Cloudy with Fog 33 0.6 33 0.6 100 100 NE 5 7 30.21 1023 0.25 0.402335 0 0
3:53 am 03:53 Mostly Cloudy with Fog 34 1.1 33 0.6 97 97 NE 5 7 30.2 1023 0.25 0.402335 0.001 0.001
4:53 am 04:53 Mostly Cloudy with Fog 33 0.6 33 0.6 100 100 Calm 30.19 1022 0.25 0.402335 0 0
5:53 am 05:53 Mostly Cloudy with Fog 32 0 32 0 100 100 NE 7 11 30.18 1022 0.25 0.402335 0 0
6:53 am 06:53 Mostly Cloudy with Fog 32 0 32 0 100 100 Calm 30.19 1022 0.25 0.402335 0 0
7:53 am 07:53 Mostly Cloudy with Fog 33 0.6 33 0.6 100 100 Calm 30.17 1022 0.25 0.402335 0 0
8:53 am 08:53 Mostly Cloudy with Mist and Fog 35 1.7 35 1.7 100 100 Calm 30.16 1021 0.75 1.207005 0 0
9:00 am 09:00 Cloudy with Mist and Fog 35 1.7 35 1.7 100 100 Calm 30.17 1022 0.75 1.207005 0 0
9:24 am 09:24 Cloudy with Mist and Fog 36 2.2 35 1.7 97 97 Calm 30.17 1022 0.75 1.207005 0 0
9:51 am 09:51 Cloudy with Mist and Fog 36 2 36 2 100 100 Calm 30.15 1021 1 1.60934 0 0
9:53 am 09:53 Cloudy with Mist and Fog 36 2.2 36 2.2 100 100 Calm 30.14 1021 1 1.60934 0 0
10:53 am 10:53 Cloudy with Mist and Fog 42 5.6 41 5 96 96 SW 3 6 30.12 1020 3 4.82802 0 0
11:53 am 11:53 Cloudy 47 8.3 45 7.2 93 93 SSW 3 6 30.08 1019 10 16.0934 0.001 0.001
12:53 pm 12:53 Cloudy 51 10.6 48 8.9 89 89 S 5 7 30.04 1017 10 16.0934 0 0
1:24 pm 13:24 Cloudy with Light Rain 50 10 48 8.9 93 93 WSW 3 6 30.03 1017 2 3.21868 0.001 0.001
1:53 pm 13:53 Cloudy with Mist and Fog 51 10.6 49 9.4 92 92 WNW 3 6 30.01 1016 4 6.43736 0.001 0.001
2:53 pm 14:53 Cloudy with Mist and Fog 53 11.7 51 10.6 93 93 Calm 29.99 1016 4 6.43736 0.001 0.001
3:53 pm 15:53 Cloudy 54 12.2 52 11.1 93 93 W 3 6 29.99 1016 10 16.0934 0.001 0.001
4:53 pm 16:53 Cloudy 55 12.8 53 11.7 93 93 W 5 7 29.99 1016 10 16.0934 0 0
5:53 pm 17:53 Cloudy 58 14.4 54 12.2 87 87 W 9 15 30.02 1017 10 16.0934 0 0
6:53 pm 18:53 Cloudy 55 12.8 49 9.4 80 80 W 16 26 30.07 1018 10 16.0934 0 0
7:21 pm 19:21 Cloudy 54 12.2 46 7.8 75 75 W 14 22 30.08 1019 10 16.0934 0 0
7:53 pm 19:53 Clear 53 11.7 45 7.2 74 74 W 8 13 30.09 1019 10 16.0934 0 0
8:53 pm 20:53 Cloudy 52 11.1 45 7.2 77 77 W 13 20 30.12 1020 10 16.0934 0 0
9:10 pm 21:10 Cloudy 52 11.1 45 7.2 77 77 W 10 17 30.13 1020 10 16.0934 0 0
9:53 pm 21:53 Partly Cloudy 51 10.6 43 6.1 74 74 W 10 17 30.14 1021 10 16.0934 0 0
10:53 pm 22:53 Clear 48 8.9 42 5.6 80 80 WSW 10 17 30.16 1021 10 16.0934 0 0
11:37 pm 23:37 Mostly Cloudy 48 8.9 42 5.6 80 80 W 10 17 30.2 1023 10 16.0934 0 0
11:53 pm 23:53 Mostly Cloudy 48 8.9 41 5 77 77 W 5 7 30.19 1023 10 16.0934 0 0

Powered by AerisWeather